Showing default

BB 2, 56170

Orbit data source: Space-Track

BB 2, 56170 is a payload satellite owned by SDA (US) in LEO that was launched on Sun, 02 Apr 2023 UTC via an FALCON 9 launch vehicle from the Air Force Western Test Range (AFWTR). Payload-class satellites include a variety of spacecraft equipped with specific instruments for various scientific and technological missions. These include communications satellites like Starlink; space stations such as the ISS; scientific satellites like the Hubble; Earth observation satellites from companies like Planet Labs, Umbra, and HawkEye 360; GPS; miniature CubeSats for education and research; and military/defense satellites.

Loading next visibility...
Identifier
56170, 2023-050J
Orbit
LEO
Country
Flag of USUS
Related business
Manufacturer
SPX/LEIDOS
Mission
Operational Defense Early Warn
Bus & Motor
STARSHIELD?, Unknown motor
Mass
~800 kg wet, ~800 kg dry
Launch date (UTC)
2023-04-02 (3 years ago)
Launch vehicle
FALCON 9
Launch site
Air Force Western Test Range (AFWTR)
Object type
Payload
Rocket body
Debris
Shape & HBR
Box + 1 Pan, 4.5 m
Radar Cross Section
12.397 m², Large (>1 m²)

Expand to show TLE details & history
Last TLE update: 5 days ago

TLE from 5 days ago
0 BB 2
1 56170U 23050J   26168.09752122  .00000440  00000-0  19631-3 0  9991
2 56170  80.9989  78.3664 0009017 294.9987  65.0252 14.21375593161674
Epoch: 2026-06-17T02:20Z
TLE epoch observation values (Epoch: 2026-06-17T02:20:25.833Z)
Latitude
-0.00006°
Longitude
137.89866°
Altitude
820.875 km
Speed
7.444 km/s
True Right ascension
05h 13m 27s
True Declination
0° 00' 00"
Sunlit
Object was in daylight at epoch
Visualization orbit readout
Latitude
Unknown
Longitude
Unknown
Altitude
Unknown
Speed
Unknown
Apparent Right ascension
Unknown
Apparent Declination
Unknown
Sunlit
N/A
Visualization observer readout
Local Sidereal Time
21:39:06
Azimuth
Unknown
Elevation
Unknown
Doppler factor
Unknown
Orbital elements
Apogee altitude
824.364 km
Perigee altitude
811.387 km
Semi-major axis
7,196.012 km
Eccentricity
0.0009
Inclination
80.9989°
RAAN
78.3664°
Arg. of periapsis
294.9987°
True anomaly
65.11891°
Mean anomaly
65.0252°
Eccentric anomaly
65.07205°
Mean motion
3.55554 °/min
Orbital period
101.25 mins
BSTAR
0.00019631
Loading maneuver chart data...
Computing Atmospheric mass density...
Loading historical data...
Loading historical data...
Loading historical data...
Loading historical data...
Loading historical data...
Loading historical data...
Loading historical data...

Documentation

Showing up to 5 results
|